Fresno, CA

6:42 PM PST on January 22, 2018 (GMT -0800)
Fresno Yosemite International

Weather History for KFAT - April, 2014

Change the Weather History Date:

Saturday, April 19, 2014

  Actual Average Record
Temperature  
Mean Temperature 73 °F 63 °F  
Max Temperature 86 °F 76 °F 93 °F (1950)
Min Temperature 60 °F 50 °F 35 °F (1955)
Degree Days  
Heating Degree Days 0    
Month to date heating degree days 44  
Since 1 July heating degree days 1477  
Cooling Degree Days 8    
Month to date cooling degree days 105  
Year to date cooling degree days 117  
Growing Degree Days 23 (Base 50)    
Moisture  
Dew Point 40 °F    
Average Humidity 34    
Maximum Humidity 60    
Minimum Humidity 7    
Precipitation  
Precipitation 0.00 in 0.03 in 0.99 in (1988)
Month to date precipitation 0.12 0.66  
Year to date precipitation 3.42 6.91  
Since 1 July precipitation 4.15  
Snow  
Snow 0.00 in - - ()
Month to date snowfall 0.0  
Since 1 July snowfall 0.0  
Snow Depth 0.00 in    
Sea Level Pressure  
Sea Level Pressure 29.97 in    
Wind  
Wind Speed 9 mph (NW)    
Max Wind Speed 21 mph    
Max Gust Speed 28 mph    
Visibility 10 miles    
Events      
T = Trace of Precipitation, MM = Missing Value Source: NWS Daily Summary

Daily Weather History Graph

Daily Weather History Graph

Search for Another Location

Airport or City:

Trip Planner

Search our weather history database for the weather conditions in past years. The results will help you decide how hot, cold, wet, or windy it might be!

Date:

Astronomy

Apr. 19, 2014 Rise Set
Actual Time 6:19 AM PDT 7:37 PM PDT
Civil Twilight 5:52 AM PDT 8:04 PM PDT
Nautical Twilight 5:20 AM PDT 8:36 PM PDT
Astronomical Twilight 4:46 AM PDT 9:10 PM PDT
Moon No Moon Rise 9:46 AM PDT (4/19)
Length of Visible Light 14h 11m
Length of Day
13h 17m
Waning Gibbous, 77% of the Moon is Illuminated
Apr 19
Waning Gibbous
Apr 22
Last Quarter
Apr 28
New
May 6
First Quarter
May 14
Full

Hourly Weather History & Observations

Time (PDT) Temp. Dew Point Humidity Pressure Visibility Wind Dir Wind Speed Gust Speed Precip Events Conditions
12:53 AM 66.9 °F 48.9 °F 52% 29.88 in 10.0 mi Variable 5.8 mph - N/A   Scattered Clouds
1:53 AM 64.4 °F 48.2 °F 56% 29.89 in 10.0 mi WNW 10.4 mph - N/A   Scattered Clouds
2:53 AM 63.0 °F 48.0 °F 58% 29.88 in 10.0 mi NNW 4.6 mph - N/A   Scattered Clouds
3:53 AM 62.1 °F 48.0 °F 60% 29.89 in 10.0 mi NW 4.6 mph - N/A   Scattered Clouds
4:53 AM 62.6 °F 46.4 °F 55% 29.91 in 10.0 mi NW 5.8 mph - N/A   Scattered Clouds
5:53 AM 60.1 °F 46.9 °F 62% 29.92 in 10.0 mi NNW 4.6 mph - N/A   Overcast
6:53 AM 61.0 °F 46.9 °F 60% 29.95 in 10.0 mi Calm Calm - N/A   Overcast
7:53 AM 63.0 °F 48.0 °F 58% 29.97 in 10.0 mi Calm Calm - N/A   Mostly Cloudy
8:53 AM 66.0 °F 48.9 °F 54% 29.99 in 10.0 mi Calm Calm - N/A   Mostly Cloudy
9:53 AM 70.0 °F 50.0 °F 49% 30.00 in 10.0 mi Variable 3.5 mph - N/A   Mostly Cloudy
10:53 AM 73.0 °F 48.9 °F 42% 30.01 in 10.0 mi Variable 4.6 mph - N/A   Mostly Cloudy
11:53 AM 75.9 °F 50.0 °F 40% 30.00 in 10.0 mi Calm Calm - N/A   Mostly Cloudy
12:53 PM 80.1 °F 48.9 °F 34% 29.99 in 10.0 mi Variable 5.8 mph - N/A   Scattered Clouds
1:53 PM 82.9 °F 39.0 °F 21% 29.99 in 10.0 mi WNW 9.2 mph - N/A   Scattered Clouds
2:53 PM 84.9 °F 34.0 °F 16% 29.98 in 10.0 mi WNW 15.0 mph 24.2 mph N/A   Scattered Clouds
3:53 PM 84.9 °F 24.1 °F 11% 29.98 in 10.0 mi NW 12.7 mph - N/A   Partly Cloudy
4:53 PM 84.0 °F 17.1 °F 8% 29.96 in 10.0 mi NNW 11.5 mph - N/A   Partly Cloudy
5:53 PM 82.0 °F 12.0 °F 7% 29.97 in 10.0 mi WNW 18.4 mph - N/A   Partly Cloudy
6:53 PM 80.1 °F 24.1 °F 13% 29.96 in 10.0 mi WNW 16.1 mph - N/A   Partly Cloudy
7:53 PM 75.9 °F 28.9 °F 18% 29.99 in 10.0 mi NW 16.1 mph - N/A   Partly Cloudy
8:53 PM 73.0 °F 35.1 °F 25% 30.02 in 10.0 mi NW 12.7 mph - N/A   Clear
9:53 PM 70.0 °F 41.0 °F 35% 30.03 in 10.0 mi NW 12.7 mph - N/A   Clear
10:53 PM 66.9 °F 45.0 °F 45% 30.05 in 10.0 mi WNW 13.8 mph - N/A   Clear
11:53 PM 64.0 °F 46.9 °F 54% 30.06 in 10.0 mi WNW 15.0 mph - N/A   Clear